Prévision chaque heure sur Domdidier


  Conditions Température Point de rosée PrécipitationProbabilité d'orage Vent Pression UV Index Couverture nuageuse Visibilité
 08:08     17:17   La longueur du jour: 9:09 Aujourd'hui
11:00 5 °
Sensation de: -10.4°
-2.0°   0%
17
Max: 34 km/h
1042.0 hPa   6% 28 km
12:00 6 °
Sensation de: -8.3°
-2.0°   0%
16
Max: 35 km/h
1041.6 hPa 5% 28 km
13:00 7 °
Sensation de: -6.8°
-2.0°   0%
15
Max: 34 km/h
1041.0 hPa 15% 27 km
14:00 7 °
Sensation de: -6.1°
-2.0°   0%
15
Max: 33 km/h
1040.4 hPa 15% 27 km
15:00 8 °
Sensation de: -5.6°
-2.0°   0%
15
Max: 33 km/h
1040.0 hPa   14% 27 km
16:00 7 °
Sensation de: -5.4°
-2.1°   0%
14
Max: 32 km/h
1040.4 hPa   14% 26 km
17:00 6 °
Sensation de: -6.5°
-2.1°   0%
13
Max: 31 km/h
1040.8 hPa   14% 26 km
18:00 4 °
Sensation de: -8.1°
-2.1°   0%
12
Max: 29 km/h
1041.4 hPa   5% 26 km
19:00 2 °
Sensation de: -9.1°
-2.2°   0%
11
Max: 26 km/h
1041.8 hPa   7% 26 km
20:00 1 °
Sensation de: -9.6°
-2.4°   0%
10
Max: 24 km/h
1042.0 hPa   7% 25 km
21:00 0 °
Sensation de: -9.9°
-2.6°   0%
9
Max: 23 km/h
1042.2 hPa   8% 25 km
22:00 -1 °
Sensation de: -10.6°
-2.8°   0%
9
Max: 21 km/h
1042.6 hPa   20% 25 km
23:00 -1 °
Sensation de: -9.8°
-3.0°   0%
7
Max: 19 km/h
1043.0 hPa   20% 25 km
 08:07     17:18   La longueur du jour: 9:11 Demain
00:00 -2 °
Sensation de: -10.4°
-3.2°   0%
7
Max: 16 km/h
1043.0 hPa   20% 25 km
01:00 -2 °
Sensation de: -9.5°
-3.4°   0%
5
Max: 14 km/h
1043.0 hPa   20% 24 km
02:00 -3 °
Sensation de: -9.3°
-3.7°   0%
4
Max: 11 km/h
1042.8 hPa   19% 22 km
03:00 -3 °
Sensation de: -9.0°
-3.9°   0%
3
Max: 9 km/h
1042.4 hPa   5% 19 km
04:00 -4 °
Sensation de: -8.8°
-4.1°   0%
2
Max: 7 km/h
1042.0 hPa   15% 17 km
05:00 -4 °
Sensation de: -9.2°
-4.2°   0%
2
Max: 6 km/h
1042.0 hPa   15% 15 km
06:00 -4 °
Sensation de: -10.2°
-4.4°   0%
3
Max: 6 km/h
1042.0 hPa   2% 13 km
07:00 -5 °
Sensation de: -9.8°
-4.5°   0%
2
Max: 6 km/h
1041.6 hPa   4% 12 km
08:00 -5 °
Sensation de: -9.4°
-4.8°   0%
1
Max: 5 km/h
1041.2 hPa   10% 12 km
09:00 -4 °
Sensation de: -9.0°
-4.5°   0%
1
Max: 5 km/h
1041.0 hPa   15% 14 km
10:00 -3 °
Sensation de: -7.1°
-3.6°   0%
1
Max: 5 km/h
1040.8 hPa   19% 19 km
11:00 0 °
Sensation de: -4.2°
-2.6°   0%
1
Max: 5 km/h
1040.4 hPa   19% 23 km
12:00 3 °
Sensation de: -0.8°
-1.9°   0%
1
Max: 7 km/h
1039.4 hPa 19% 23 km
13:00 6 °
Sensation de: 0.9°
-1.6°   0%
2
Max: 10 km/h
1038.6 hPa 29% 23 km
14:00 7 °
Sensation de: 2.5°
-1.5°   0%
2
Max: 14 km/h
1037.6 hPa 27% 22 km
15:00 7 °
Sensation de: 2.2°
-1.5°   0%
3
Max: 17 km/h
1037.2 hPa   24% 22 km
16:00 7 °
Sensation de: 1.5°
-1.6°   0%
3
Max: 16 km/h
1037.0 hPa   21% 22 km
17:00 5 °
Sensation de: -0.8°
-1.6°   0%
3
Max: 13 km/h
1037.0 hPa   23% 22 km
18:00 2 °
Sensation de: -3.3°
-1.8°   0%
3
Max: 10 km/h
1037.0 hPa   25% 22 km
19:00 1 °
Sensation de: -4.9°
-2.3°   0%
3
Max: 9 km/h
1037.0 hPa   25% 22 km
20:00 -0 °
Sensation de: -6.0°
-2.6°   0%
3
Max: 8 km/h
1037.0 hPa   58% 23 km
21:00 -1 °
Sensation de: -6.6°
-2.7°   0%
3
Max: 7 km/h
1037.0 hPa   81% 23 km
22:00 -1 °
Sensation de: -6.9°
-2.8°   0%
3
Max: 8 km/h
1037.0 hPa   96% 23 km
23:00 -1 °
Sensation de: -6.5°
-2.8°   0%
2
Max: 6 km/h
1037.0 hPa   97% 23 km
 08:06     17:20   La longueur du jour: 9:14 Mercredi 22 Jan
00:00 -2 °
Sensation de: -7.6°
-2.8°   0%
3
Max: 5 km/h
1036.8 hPa   97% 22 km
01:00 -2 °
Sensation de: -6.4°
-3.0°   0%
1
Max: 5 km/h
1036.4 hPa   97% 21 km
02:00 -2 °
Sensation de: -6.7°
-3.1°   0%
1
Max: 5 km/h
1036.0 hPa   86% 20 km
03:00 -3 °
Sensation de: -7.1°
-3.2°   0%
1
Max: 5 km/h
1035.6 hPa   73% 18 km
04:00 -3 °
Sensation de: -6.7°
-3.3°   0%
0
Max: 5 km/h
1035.0 hPa   60% 16 km
05:00 -3 °
Sensation de: -7.0°
-3.5°   0%
0
Max: 5 km/h
1034.4 hPa   52% 14 km
06:00 -4 °
Sensation de: -7.3°
-3.6°   0%
0
Max: 5 km/h
1034.0 hPa   51% 12 km
07:00 -4 °
Sensation de: -7.6°
-3.8°   0%
0
Max: 5 km/h
1034.0 hPa   57% 12 km
08:00 -4 °
Sensation de: -7.9°
-4.0°   0%
0
Max: 5 km/h
1034.0 hPa   38% 12 km
09:00 -4 °
Sensation de: -7.3°
-3.7°   0%
0
Max: 5 km/h
1034.0 hPa   25% 13 km
10:00 -2 °
Sensation de: -6.2°
-2.7°   0%
1
Max: 5 km/h
1034.0 hPa   12% 18 km